Location: Unspecified
(0.0000°N, 0.0000°E)
Time: 10:11:57
(UTC+02:00)

Haruka - Visible Passes

Search period start: 22 September 2014 00:00
Search period end: 02 October 2014 00:00
Orbit: 521 x 21258 km, 31.2° (Epoch: 20 September)

Date Brightness Start Highest point End Pass type
(mag) Time Alt. Az. Time Alt. Az. Time Alt. Az.
22 Sep 7.4 00:00:00 23° WNW 01:04:39 50° WSW 01:04:39 50° WSW visible
23 Sep 7.9 01:28:27 10° WNW 02:10:31 24° W 02:10:31 24° W visible
23 Sep 7.6 15:45:41 10° WNW 20:02:13 59° NE 20:59:59 18° E visible
24 Sep 7.1 17:04:10 10° WNW 21:40:24 73° NE 22:05:53 41° ESE visible
25 Sep 6.9 18:30:54 10° WNW 23:03:06 88° SW 23:11:48 67° SE visible
26 Sep 7.0 20:15:51 10° NW 00:17:43 64° SW 00:17:43 64° SW visible
27 Sep 7.4 23:11:42 10° WNW 01:23:41 37° WSW 01:23:41 37° WSW visible
29 Sep 8.0 02:19:11 10° W 02:29:43 14° WSW 02:29:43 14° WSW visible
29 Sep 7.4 16:08:07 10° WNW 20:35:48 69° NE 21:19:12 21° ESE visible
30 Sep 7.0 17:29:32 10° WNW 22:04:53 86° NE 22:25:10 42° ESE visible
01 Oct 6.8 19:01:18 10° NW 23:23:15 72° SW 23:31:08 60° SSE visible
